Tracking 19192 objects as of 21-Jun-2018
HD Live streaming from Space Station
objects crossing your sky now

CZ-3B DEB

Track CZ-3B DEB now!


NORAD ID: 40159
Int'l Code: 2010-042L
Perigee: 388.0 km
Apogee: 36,320.5 km
Inclination: 27.4 °
Period: 644.9 minutes
Semi major axis: 24725 km
RCS: Unknown
Launch date: September 4, 2010
Source: People's Republic of China (PRC)
Launch site: Xichang Space Center, China (XSC)

Note: This is SATELLITE DEBRIS
aabbcc
Your satellite tracking list
Your tracking list is empty




NASA's NSSDC Master Catalog

Two Line Element Set (TLE):
1 40159U 10042L   18168.53863813  .00000095  00000-0  50489-3 0  9990
2 40159  27.3584 357.6736 7266343 308.2386   6.1679  2.23301693 52058
Source of the keplerian elements: AFSPC